Location: Ladd Observatory
(41.8387°N, 71.3996°W)
Time: 18:26:58
(UTC-04:00)

ISS - Visible Passes

Search period start: 02 August 2015 00:00
Search period end: 12 August 2015 00:00
Orbit: 401 x 403 km, 51.6° (Epoch: 02 August)

Date Brightness Start Highest point End Pass type
(mag) Time Alt. Az. Time Alt. Az. Time Alt. Az.
02 Aug -1.3 04:42:22 12° SSW 04:42:22 12° SSW 04:43:01 10° SSW visible
02 Aug -2.7 21:17:25 10° WSW 21:20:38 58° NNW 21:23:52 10° NE visible
02 Aug -0.4 22:55:16 10° WNW 22:57:36 18° NNW 22:59:54 10° NNE visible
03 Aug 0.2 00:32:51 10° NNW 00:32:59 11° NNW 00:32:59 11° NNW visible
03 Aug -0.8 22:01:41 10° WNW 22:04:20 22° NNW 22:06:59 10° NE visible
03 Aug -0.2 23:39:41 10° NW 23:41:37 15° N 23:41:47 15° N visible
04 Aug -1.4 21:08:09 10° W 21:11:07 31° NNW 21:14:05 10° NE visible
04 Aug -0.2 22:46:18 10° NW 22:48:18 15° N 22:50:17 10° NNE visible
05 Aug -0.4 21:52:44 10° NW 21:54:58 17° N 21:57:12 10° NNE visible
05 Aug -0.3 23:30:10 10° NNW 23:31:47 16° N 23:31:47 16° N visible
06 Aug -0.7 20:59:06 10° WNW 21:01:41 21° NNW 21:04:14 10° NE visible
06 Aug -0.4 22:37:02 10° NW 22:38:59 15° N 22:40:27 12° NNE visible
07 Aug -0.4 21:43:40 10° NW 21:45:38 15° N 21:47:35 10° NE visible
07 Aug -0.4 23:20:22 10° NW 23:21:43 17° NNW 23:21:43 17° NNW visible
08 Aug -0.5 20:50:07 10° NW 20:52:16 16° N 20:54:25 10° NNE visible
08 Aug -0.8 22:27:23 10° NNW 22:29:37 17° N 22:30:22 16° NNE visible
09 Aug -0.5 21:34:15 10° NNW 21:36:15 15° N 21:38:15 10° NE visible
09 Aug -0.4 23:10:27 10° NW 23:11:37 18° NNW 23:11:37 18° NNW visible
10 Aug -0.5 20:40:56 10° NW 20:42:52 15° N 20:44:49 10° NE visible
10 Aug -1.3 22:17:30 10° NW 22:20:09 22° NNE 22:20:17 22° NNE visible
11 Aug -0.9 21:24:30 10° NNW 21:26:49 18° NNE 21:28:58 11° NE visible
11 Aug -0.5 23:00:31 10° NW 23:01:33 18° NW 23:01:33 18° NW visible
